Location: Berg
(48.4333°N, 13.9167°E)
Time: 08:55:24
(UTC+00:00)

Cosmos 1844 Rocket - Pass Details

Date: 18 September 2020
Orbit: 823 x 846 km, 71.0° (Epoch: 24 October)

Event Time Altitude Azimuth Distance (km) Brightness Sun altitude
Rises 17:57:09 0° 160° (SSE) 3,346 5.5 -8.6°
Reaches altitude 10° 18:00:14 10° 142° (SE) 2,420 4.6 -9.1°
Maximum altitude 18:03:58 19° 100° (E) 1,886 3.9 -9.7°
Drops below altitude 10° 18:07:43 10° 57° (ENE) 2,438 4.7 -10.3°
Sets 18:10:50 0° 40° (NE) 3,381 5.6 -10.8°
